Погода в Нузавилле

Австралия     26°23′45″S   153°05′25″E
темп.,
°C
ветер,
м/с
пор.,
м/с
влажн.,
%
обл.,
%
осадки,
мм/ч
давл.,
гПа
погр.,
м
14 мая, пт
пт1401:00+11з24690 0.0 101280
04:00+11з12700 0.0 101243
07:00+10з11770 0.0 101445
10:00+21юз24370 0.0 1014695
13:00+24ю23300 0.0 10121284
16:00+21вюв13530 0.0 1012134
19:00+14зюз11760 0.0 101526
22:00+12з11820 0.0 101620
15 мая, сб
сб1501:00+11з21780 0.0 101526
04:00+10з11790 0.0 101523
07:00+10з11780 0.0 101645
10:00+21сз01436 0.0 1016630
13:00+23зсз133293 0.0 10131614
16:00+20ююз13460 0.0 1013164
19:00+13зюз236337 0.0 101656
22:00+11зюз2469100 0.0 101793
16 мая, вс
вс1601:00+10юз2464100 0.0 101792
04:00+9ююз13726 0.0 101753
07:00+8ююз27756 0.0 1020169
10:00+17ю485811 0.0 1021825
13:00+19ююв455435 0.0 10191468
16:00+18ююв24696 0.1 1019869
19:00+13ююз23924 0.1 102182
22:00+11ююз249619 0.1 102285
17 мая, пн
пн1701:00+10юз229618 0.0 102244
04:00+10юз22969 0.0 102246
07:00+11юз12900 0.0 102344
10:00+20юв11480 0.0 1023752
13:00+22в22424 0.0 10201494
16:00+19вюв236220 0.0 1021372
19:00+13ююз128025 0.0 102440
22:00+12ююз23825 0.0 102587
18 мая, вт
вт1801:00+12ююз268125 0.0 1025206
04:00+12ююз268689 0.0 1025225
07:00+14ююз298597 0.1 1026413
10:00+18ю476875 0.4 1026933
13:00+20ююв466235 0.2 10241342
16:00+19ююв37731 0.4 1024930
19:00+15ю279569 0.9 1026241
22:00+15ю2594100 1.7 1026200